Tracking 30685 objects as of 19-Jun-2025
HD Live streaming from Space Station
objects crossing your sky now

TIROS 6

Track TIROS 6 now!
10-day predictions
TIROS 6 is classified as:


NORAD ID: 397
Int'l Code: 1962-047A
Perigee: 582.0 km
Apogee: 599.4 km
Inclination: 58.3 °
Period: 96.3 minutes
Semi major axis: 6961 km
RCS: 0.807 m2 (medium)
Launch date: September 18, 1962
Source: United States (US)
Launch site: AIR FORCE EASTERN TEST RANGE (AFETR)
Your satellite tracking list
Your tracking list is empty




NASA's NSSDC Master Catalog

Two Line Element Set (TLE):
1 00397U 62047A   25169.48357219  .00000842  00000-0  98154-4 0  9995
2 00397  58.3024 227.6772 0012464  54.1636 306.0568 14.94617643357927
Source of the keplerian elements: AFSPC